Location: Berkeley
(37.8716°N, 122.2727°W)
Time: 00:07:23
(UTC-07:00)

Tiangong 2 - Visible Passes

Search period start: 29 June 2017 00:00
Search period end: 09 July 2017 00:00
Orbit: 391 x 396 km, 42.8° (Epoch: 28 June)

Date Brightness Start Highest point End Pass type
(mag) Time Alt. Az. Time Alt. Az. Time Alt. Az.
29 Jun 2.1 04:15:36 29° S 04:16:23 33° SSE 04:19:20 10° E visible
30 Jun 3.7 03:21:23 14° ESE 03:21:23 14° ESE 03:22:16 10° E visible
30 Jun 1.2 04:53:46 13° WSW 04:56:32 74° NNW 04:59:47 10° ENE visible
01 Jul 1.0 03:59:31 60° SSW 03:59:52 68° SSE 04:03:06 10° ENE visible
02 Jul 3.5 03:05:13 18° E 03:05:13 18° E 03:06:18 10° E visible
02 Jul 2.0 04:37:36 14° W 04:40:11 46° NNW 04:43:20 10° ENE visible
03 Jul 1.3 03:43:18 65° NW 03:43:26 66° NNW 03:46:39 10° ENE visible
03 Jul 2.8 05:17:44 10° WNW 05:20:41 32° N 05:23:39 10° ENE visible
04 Jul 3.7 02:48:58 18° ENE 02:48:58 18° ENE 02:49:57 10° ENE visible
04 Jul 2.5 04:21:21 13° WNW 04:23:52 35° N 04:26:52 10° ENE visible
05 Jul 2.1 03:27:03 43° NNW 03:27:03 43° NNW 03:30:09 10° ENE visible
05 Jul 2.8 05:01:26 10° WNW 05:04:24 33° N 05:07:21 10° ENE visible
06 Jul 4.0 02:32:45 15° ENE 02:32:45 15° ENE 02:33:27 10° ENE visible
06 Jul 2.8 04:05:08 14° WNW 04:07:32 32° N 04:10:29 10° ENE visible
07 Jul 2.8 03:10:55 33° N 03:10:55 33° N 03:13:40 10° ENE visible
07 Jul 2.5 04:44:58 10° WNW 04:48:02 40° NNE 04:51:07 10° E visible
08 Jul 4.4 02:16:47 11° ENE 02:16:47 11° ENE 02:16:55 10° ENE visible
08 Jul 2.7 03:49:11 17° NW 03:51:11 34° N 03:54:11 10° ENE visible
